�N����,����,�~����,�C��,���x,�C��,����,���ϕ���,�ő�u�ԕ���,�ő厞����,���˗�,�I�_���x,�n�����x,�ő啗���N��,DTYPE
"16/05/10","00:10",0.2,15.4,97.0,1006.0,299.3,0.3,0.5,308.8,0.00,15.0,16.9,"00:03:44",1
"16/05/10","00:20",0.0,15.4,97.0,1006.0,306.1,0.3,0.6,276.9,0.00,15.0,17.0,"00:11:04",1
"16/05/10","00:30",0.0,15.4,97.0,1006.0,320.9,0.7,1.1,339.1,0.00,15.0,16.7,"00:28:48",1
"16/05/10","00:40",0.0,15.5,97.1,1005.5,326.9,0.7,1.1,338.1,0.00,15.1,17.0,"00:30:08",1
"16/05/10","00:50",0.0,15.5,97.1,1005.7,348.6,0.7,1.2,17.8,0.00,15.1,16.9,"00:48:32",1
"16/05/10","01:00",0.0,15.5,97.2,1005.5,336.9,0.7,1.0,338.5,0.00,15.1,17.0,"00:52:16",1
"16/05/10","01:10",0.0,15.5,97.2,1005.2,313.2,0.3,0.6,321.8,0.00,15.1,16.8,"01:04:32",1
"16/05/10","01:20",0.0,15.4,97.2,1005.0,346.7,0.7,1.1,329.6,0.00,15.0,16.8,"01:10:02",1
"16/05/10","01:30",0.0,15.4,97.2,1005.0,332.8,0.6,1.3,339.8,0.00,15.0,16.8,"01:20:16",1
"16/05/10","01:40",0.0,15.4,97.3,1004.8,318.0,0.6,1.0,347.9,0.00,15.0,17.0,"01:32:32",1
"16/05/10","01:50",0.2,15.4,97.4,1005.0,307.0,0.3,1.0,336.6,0.00,15.0,16.8,"01:42:56",1
"16/05/10","02:00",0.0,15.4,97.3,1004.8,315.3,0.5,0.6,315.4,0.00,15.0,16.8,"01:54:00",1
"16/05/10","02:10",0.2,15.4,97.4,1005.2,337.4,0.3,0.6,333.6,0.00,15.0,16.7,"02:00:48",1
"16/05/10","02:20",0.4,15.4,97.4,1004.8,349.8,0.5,1.0,350.8,0.00,15.0,16.8,"02:13:36",1
"16/05/10","02:30",0.2,15.4,97.4,1004.5,229.0,0.0,0.3,344.5,0.00,15.0,16.8,"02:20:08",1
"16/05/10","02:40",0.0,15.4,97.4,1005.0,193.1,0.0,0.4,203.4,0.00,15.0,16.7,"02:32:16",1
"16/05/10","02:50",0.2,15.4,97.5,1005.0,357.3,0.2,0.6,359.4,0.00,15.0,16.8,"02:42:56",1
"16/05/10","03:00",0.2,15.4,97.5,1004.8,8.3,0.7,1.2,11.5,0.00,15.0,16.8,"02:56:00",1
"16/05/10","03:10",0.0,15.4,97.5,1004.3,352.9,0.3,0.9,358.5,0.00,15.0,16.7,"03:01:20",1
"16/05/10","03:20",0.0,15.4,97.6,1004.5,3.2,0.6,0.9,352.8,0.00,15.1,16.7,"03:12:16",1
"16/05/10","03:30",0.0,15.4,97.6,1004.3,3.1,0.5,0.9,46.7,0.00,15.1,16.7,"03:22:16",1
"16/05/10","03:40",0.0,15.4,97.6,1004.3,5.5,0.5,0.8,340.0,0.00,15.1,17.0,"03:34:48",1
"16/05/10","03:50",0.0,15.4,97.6,1004.3,357.5,0.2,0.5,357.8,0.00,15.1,16.9,"03:43:12",1
"16/05/10","04:00",0.0,15.5,97.6,1004.3,349.2,0.3,0.6,351.5,0.00,15.2,16.7,"03:59:20",1
"16/05/10","04:10",0.0,15.4,97.6,1004.8,8.5,0.5,0.8,357.1,0.00,15.1,16.8,"04:06:24",1
"16/05/10","04:20",0.0,15.5,97.7,1004.5,12.0,0.6,0.9,9.2,0.00,15.2,16.8,"04:13:36",1
"16/05/10","04:30",0.0,15.4,97.6,1004.3,357.7,0.6,1.1,5.9,0.00,15.1,16.5,"04:21:52",1
"16/05/10","04:40",0.0,15.5,97.7,1004.8,315.2,0.0,0.4,234.9,0.00,15.2,16.7,"04:38:00",1
"16/05/10","04:50",0.0,15.5,97.7,1004.5,313.8,0.1,0.4,9.5,0.00,15.2,16.8,"04:49:12",1
"16/05/10","05:00",0.0,15.6,97.7,1004.8,4.8,0.7,1.2,4.0,0.00,15.3,16.7,"04:58:48",1
"16/05/10","05:10",0.0,15.6,97.6,1005.0,358.0,0.7,1.3,350.2,0.00,15.3,16.7,"05:02:16",1
"16/05/10","05:20",0.0,15.6,97.7,1004.5,359.1,0.5,0.9,358.6,0.00,15.3,16.8,"05:12:32",1
"16/05/10","05:30",0.0,15.7,97.8,1004.8,303.9,0.1,0.8,352.3,0.00,15.4,16.6,"05:20:32",1
"16/05/10","05:40",0.0,15.7,97.7,1005.0,10.5,0.2,0.6,359.7,0.00,15.4,16.7,"05:38:00",1
"16/05/10","05:50",0.0,15.7,97.7,1004.8,352.0,0.5,1.0,348.3,0.00,15.4,16.6,"05:49:44",1
"16/05/10","06:00",0.0,15.8,97.7,1005.0,2.6,0.7,1.4,353.4,0.00,15.5,16.6,"05:57:04",1
"16/05/10","06:10",0.0,15.8,97.7,1004.8,344.1,0.7,1.4,9.1,0.00,15.5,16.5,"06:01:12",1
"16/05/10","06:20",0.0,15.8,97.7,1004.3,243.2,0.0,0.4,245.6,0.00,15.5,16.6,"06:10:08",1
"16/05/10","06:30",0.0,15.9,97.7,1004.5,5.9,0.1,0.5,349.7,0.00,15.6,16.9,"06:25:20",1
"16/05/10","06:40",0.0,16.0,97.6,1004.3,346.4,0.3,0.9,344.1,0.00,15.7,16.7,"06:37:04",1
"16/05/10","06:50",0.0,16.0,97.6,1004.5,343.7,0.2,0.6,328.8,0.00,15.7,16.7,"06:40:16",1
"16/05/10","07:00",0.0,16.0,97.5,1004.3,343.3,0.2,0.5,359.6,0.00,15.6,16.8,"06:55:44",1
"16/05/10","07:10",0.0,16.3,97.5,1003.6,320.6,0.1,0.5,338.1,0.03,15.9,16.7,"07:00:02",1
"16/05/10","07:20",0.0,16.4,97.3,1004.3,350.5,0.8,1.6,354.1,0.03,16.0,16.6,"07:17:20",1
"16/05/10","07:30",0.0,16.7,97.2,1004.3,339.3,0.3,1.1,347.3,0.04,16.3,16.8,"07:21:20",1
"16/05/10","07:40",0.0,16.6,96.6,1004.3,319.1,0.5,0.8,338.8,0.02,16.1,16.7,"07:33:36",1
"16/05/10","07:50",0.0,16.6,96.5,1004.3,328.7,0.2,0.6,325.5,0.02,16.1,16.9,"07:40:08",1
"16/05/10","08:00",0.0,16.7,96.2,1004.3,350.9,0.3,0.9,356.1,0.02,16.1,16.6,"07:50:40",1
"16/05/10","08:10",0.0,16.7,95.6,1004.1,271.6,0.2,0.6,240.2,0.02,16.0,16.8,"08:03:34",1
"16/05/10","08:20",0.0,16.9,95.4,1004.1,353.8,0.1,0.5,348.5,0.04,16.2,16.9,"08:16:58",1
"16/05/10","08:30",0.0,17.0,94.9,1004.1,339.7,0.5,0.9,345.4,0.03,16.2,17.0,"08:26:40",1
"16/05/10","08:40",0.0,17.1,94.6,1004.3,339.8,0.3,0.5,350.7,0.05,16.3,16.8,"08:30:16",1
"16/05/10","08:50",0.0,17.3,93.9,1004.5,320.4,0.3,0.9,339.7,0.07,16.3,17.0,"08:49:12",1
"16/05/10","09:00",0.0,17.3,93.5,1004.3,323.6,0.7,1.3,349.4,0.08,16.3,16.9,"08:56:56",1
"16/05/10","09:10",0.0,17.5,93.5,1004.1,343.7,0.7,1.2,337.6,0.08,16.5,17.0,"09:07:36",1
"16/05/10","09:20",0.0,17.7,93.1,1004.3,322.3,0.7,1.2,337.6,0.08,16.6,17.0,"09:11:28",1
"16/05/10","09:30",0.0,17.6,92.1,1004.3,275.3,0.5,1.0,247.8,0.07,16.3,17.1,"09:22:16",1
"16/05/10","09:40",0.0,17.7,91.7,1004.5,312.1,0.3,0.6,312.5,0.04,16.4,17.0,"09:32:48",1
"16/05/10","09:50",0.0,17.7,91.8,1004.5,337.0,0.3,1.0,315.0,0.03,16.4,17.1,"09:47:20",1
"16/05/10","10:00",0.0,17.7,91.9,1004.3,317.0,0.3,0.6,281.4,0.04,16.4,17.0,"09:58:40",1
"16/05/10","10:10",0.0,17.8,91.7,1004.3,277.3,0.3,0.8,284.9,0.04,16.5,17.2,"10:00:40",1
"16/05/10","10:20",0.0,17.7,91.9,1003.8,285.5,0.1,0.5,260.7,0.04,16.4,16.9,"10:10:08",1
"16/05/10","10:30",0.0,17.9,91.7,1003.8,279.2,0.5,0.9,310.0,0.07,16.6,17.1,"10:21:28",1
"16/05/10","10:40",0.0,18.3,91.9,1003.6,305.9,0.6,1.2,314.9,0.13,17.0,17.2,"10:35:44",1
"16/05/10","10:50",0.0,18.3,91.6,1003.4,324.1,0.6,1.9,336.0,0.09,16.9,17.3,"10:49:44",1
"16/05/10","11:00",0.0,18.3,91.2,1003.4,309.0,1.1,2.0,339.4,0.10,16.9,17.4,"10:56:08",1
"16/05/10","11:10",0.0,18.3,90.9,1002.9,295.0,1.0,2.9,344.8,0.09,16.8,17.3,"11:00:02",1
"16/05/10","11:20",0.0,18.6,92.0,1003.1,294.2,1.1,2.8,342.4,0.14,17.3,17.2,"11:10:08",1
"16/05/10","11:30",0.0,19.7,89.3,1002.4,308.9,1.1,2.2,346.5,0.29,17.9,17.7,"11:21:52",1
"16/05/10","11:40",0.0,19.7,88.3,1002.2,286.2,0.7,1.6,329.9,0.27,17.8,17.5,"11:33:28",1
"16/05/10","11:50",0.0,19.9,88.0,1002.2,290.0,0.7,1.8,348.4,0.26,17.9,17.6,"11:46:08",1
"16/05/10","12:00",0.0,19.9,86.3,1001.7,228.3,0.6,2.0,229.7,0.21,17.6,17.7,"11:58:32",1
"16/05/10","12:10",0.0,19.6,86.8,1001.9,189.6,0.7,2.5,224.5,0.13,17.4,17.7,"12:04:32",1
"16/05/10","12:20",0.0,19.9,87.9,1001.7,226.8,0.6,1.9,237.4,0.14,17.9,17.7,"12:16:32",1
"16/05/10","12:30",0.0,20.3,86.3,1001.7,146.5,0.6,1.6,96.1,0.15,18.0,17.8,"12:28:40",1
"16/05/10","12:40",0.0,20.2,86.0,1001.9,349.2,1.2,2.5,341.7,0.06,17.8,17.8,"12:35:44",1
"16/05/10","12:50",0.0,20.0,86.6,1001.5,347.1,1.3,2.5,340.8,0.06,17.7,18.0,"12:47:28",1
"16/05/10","13:00",0.0,20.0,87.9,1001.0,336.8,1.0,2.1,337.2,0.09,18.0,18.2,"12:53:12",1
"16/05/10","13:10",0.0,20.2,86.9,1000.8,325.3,1.0,1.8,339.4,0.08,18.0,18.0,"13:08:32",1
"16/05/10","13:20",0.0,20.3,86.0,1000.5,321.6,1.0,1.7,338.6,0.09,17.9,18.0,"13:15:28",1
"16/05/10","13:30",0.0,20.4,85.7,1000.5,126.0,0.7,1.7,116.7,0.07,18.0,18.2,"13:29:04",1
"16/05/10","13:40",0.0,20.2,85.8,1000.3,96.0,0.6,2.0,51.5,0.03,17.8,18.1,"13:39:28",1
"16/05/10","13:50",0.0,20.1,86.8,1000.3,90.8,0.7,1.6,113.0,0.03,17.9,18.3,"13:48:16",1
"16/05/10","14:00",0.0,19.8,87.2,1000.3,246.7,0.7,1.8,238.1,0.02,17.7,18.1,"13:54:08",1
"16/05/10","14:10",0.0,19.8,88.0,999.8,304.3,0.7,1.2,321.4,0.02,17.8,18.0,"14:01:52",1
"16/05/10","14:20",0.0,19.8,88.6,1000.0,304.1,1.0,1.2,311.5,0.01,17.9,18.2,"14:11:28",1
"16/05/10","14:30",0.2,19.7,89.6,999.8,292.7,0.7,1.1,259.3,0.00,18.0,18.2,"14:25:04",1
"16/05/10","14:40",0.2,19.5,90.5,999.6,258.7,0.7,1.2,244.7,0.00,17.9,18.1,"14:33:20",1
"16/05/10","14:50",1.2,19.2,91.1,999.8,218.1,0.5,1.0,204.8,0.01,17.8,18.1,"14:41:20",1
"16/05/10","15:00",0.2,19.1,91.8,999.6,295.7,0.8,1.2,256.9,0.02,17.8,18.0,"14:52:16",1
"16/05/10","15:10",0.2,19.1,92.2,999.6,297.3,0.8,1.2,321.5,0.00,17.8,18.2,"15:00:48",1
"16/05/10","15:20",0.2,19.0,93.0,999.1,290.4,0.8,1.6,305.1,0.01,17.9,18.1,"15:17:04",1
"16/05/10","15:30",0.2,19.0,93.3,999.3,228.1,0.7,1.3,199.4,0.02,17.9,18.2,"15:21:44",1
"16/05/10","15:40",0.0,19.0,93.5,999.1,243.0,0.6,1.4,245.5,0.01,18.0,18.2,"15:30:32",1
"16/05/10","15:50",0.0,19.0,93.9,998.6,245.8,0.5,1.0,111.1,0.00,18.0,18.3,"15:42:48",1
"16/05/10","16:00",0.0,19.1,93.9,998.6,257.5,0.2,0.5,300.1,0.01,18.1,18.2,"15:52:40",1
"16/05/10","16:10",0.0,19.0,93.9,998.9,306.9,0.5,1.1,323.6,0.01,18.0,18.2,"16:02:24",1
"16/05/10","16:20",0.0,19.0,93.9,998.2,257.6,0.5,0.9,240.7,0.00,18.0,18.1,"16:14:56",1
"16/05/10","16:30",0.0,19.1,94.0,998.6,283.2,0.3,1.3,213.4,0.00,18.2,18.1,"16:29:52",1
"16/05/10","16:40",0.0,19.0,94.2,998.4,311.1,0.7,1.4,321.8,0.00,18.1,18.1,"16:38:56",1
"16/05/10","16:50",0.2,19.0,94.3,998.4,320.7,0.7,1.3,336.6,0.00,18.1,17.9,"16:40:48",1
"16/05/10","17:00",0.2,19.0,94.6,997.9,310.2,0.7,1.1,317.0,0.00,18.2,17.9,"16:55:12",1
"16/05/10","17:10",0.0,19.0,94.7,998.4,284.5,0.7,0.9,304.9,0.00,18.2,18.1,"17:02:24",1
"16/05/10","17:20",0.6,18.9,94.9,998.6,291.9,0.7,1.2,301.6,0.00,18.1,18.2,"17:13:52",1
"16/05/10","17:30",1.6,18.9,95.1,998.2,17.4,0.8,1.4,117.9,0.00,18.1,18.2,"17:28:40",1
"16/05/10","17:40",0.2,19.0,95.2,998.2,229.9,0.5,1.2,232.6,0.00,18.3,18.1,"17:39:12",1
"16/05/10","17:50",0.2,18.9,95.4,998.2,227.6,0.8,1.4,224.0,0.00,18.2,18.1,"17:42:56",1
"16/05/10","18:00",0.2,18.9,95.5,997.9,295.4,0.5,1.1,197.1,0.00,18.2,18.0,"17:50:48",1
"16/05/10","18:10",0.0,18.9,95.6,997.9,263.8,0.3,0.6,264.0,0.00,18.2,18.1,"18:02:32",1
"16/05/10","18:20",0.2,18.9,95.7,998.2,310.6,0.5,1.1,344.2,0.00,18.2,18.2,"18:18:16",1
"16/05/10","18:30",0.0,18.9,95.9,998.2,311.5,0.5,1.4,345.7,0.00,18.3,18.3,"18:22:00",1
"16/05/10","18:40",0.0,18.9,95.9,998.2,244.6,0.3,0.9,129.5,0.00,18.3,18.1,"18:36:08",1
"16/05/10","18:50",0.0,18.9,96.0,998.2,341.5,0.3,0.9,351.7,0.00,18.3,17.9,"18:48:40",1
"16/05/10","19:00",0.0,18.8,96.1,998.2,334.2,0.5,1.1,319.2,0.00,18.2,18.0,"18:56:00",1
"16/05/10","19:10",0.0,18.8,96.2,998.4,230.4,0.7,1.1,242.7,0.00,18.2,18.1,"19:04:16",1
"16/05/10","19:20",0.0,18.8,96.3,997.9,310.8,0.5,0.9,315.7,0.00,18.2,18.0,"19:12:08",1
"16/05/10","19:30",0.0,18.7,96.4,997.9,334.7,0.8,1.4,351.3,0.00,18.2,17.9,"19:28:48",1
"16/05/10","19:40",0.0,18.8,96.4,997.9,295.2,0.7,1.3,357.7,0.00,18.3,17.9,"19:37:20",1
"16/05/10","19:50",0.2,18.7,96.5,998.2,278.3,0.8,1.8,234.5,0.00,18.2,18.1,"19:49:36",1
"16/05/10","20:00",0.0,18.8,96.6,997.9,337.2,0.8,2.0,342.4,0.00,18.3,18.0,"19:58:56",1
"16/05/10","20:10",0.0,18.8,96.5,998.2,265.3,0.5,1.1,335.2,0.00,18.3,17.7,"20:00:08",1
"16/05/10","20:20",0.0,18.8,96.6,997.9,312.6,0.7,1.3,225.9,0.00,18.3,18.1,"20:15:12",1
"16/05/10","20:30",0.2,18.7,96.7,997.7,326.7,1.0,1.3,337.9,0.00,18.2,17.9,"20:22:08",1
"16/05/10","20:40",0.0,18.8,96.8,997.7,255.4,0.7,1.7,225.0,0.00,18.3,17.8,"20:39:12",1
"16/05/10","20:50",0.0,18.9,96.8,997.7,245.8,0.8,1.3,227.8,0.00,18.4,17.9,"20:41:52",1
"16/05/10","21:00",0.0,18.9,96.8,998.2,293.0,0.6,1.2,339.4,0.00,18.4,17.9,"20:58:32",1
"16/05/10","21:10",0.0,18.9,96.8,997.4,298.5,0.5,1.1,337.8,0.00,18.4,17.8,"21:00:08",1
"16/05/10","21:20",0.0,18.9,96.9,997.7,216.0,0.5,1.2,316.2,0.00,18.4,17.9,"21:16:40",1
"16/05/10","21:30",0.0,19.0,96.9,997.7,253.3,0.7,1.2,238.0,0.00,18.5,17.8,"21:28:08",1
"16/05/10","21:40",0.2,19.0,96.9,997.9,255.0,0.8,1.7,235.9,0.00,18.5,17.8,"21:32:24",1
"16/05/10","21:50",0.0,19.0,97.0,997.9,267.7,0.5,1.2,132.1,0.00,18.6,17.8,"21:48:08",1
"16/05/10","22:00",0.0,19.0,97.0,997.7,307.6,1.0,1.7,234.3,0.00,18.6,18.0,"21:54:16",1
"16/05/10","22:10",0.2,19.0,97.0,997.9,252.5,0.6,1.8,249.4,0.00,18.6,17.7,"22:00:48",1
"16/05/10","22:20",0.2,19.0,97.0,997.7,318.7,0.6,1.1,3.4,0.00,18.6,17.8,"22:15:20",1
"16/05/10","22:30",0.0,19.0,97.0,997.7,276.7,0.7,1.3,225.8,0.00,18.6,17.9,"22:29:44",1
"16/05/10","22:40",0.2,19.0,97.1,997.2,214.9,0.3,1.1,227.7,0.00,18.6,17.9,"22:30:24",1
"16/05/10","22:50",0.2,19.0,97.1,996.7,257.2,0.7,1.4,232.3,0.00,18.6,17.9,"22:43:36",1
"16/05/10","23:00",0.2,19.1,97.2,996.5,233.7,0.8,2.1,206.5,0.00,18.7,17.9,"22:57:04",1
"16/05/10","23:10",0.0,19.1,97.2,996.5,313.5,0.5,0.9,313.8,0.00,18.7,17.8,"23:05:12",1
"16/05/10","23:20",0.0,19.1,97.1,997.0,294.5,0.6,1.2,345.1,0.00,18.7,17.9,"23:11:44",1
"16/05/10","23:30",0.2,19.0,97.2,996.0,288.6,0.5,0.9,306.7,0.00,18.6,17.9,"23:25:28",1
"16/05/10","23:40",0.2,19.1,97.3,996.0,252.8,0.5,1.4,214.1,0.00,18.7,17.9,"23:39:52",1
"16/05/10","23:50",0.0,19.1,97.3,996.3,271.6,0.3,1.2,210.4,0.00,18.7,17.7,"23:40:24",1
"16/05/10","24:00",0.2,19.1,97.3,995.8,312.7,0.5,1.0,336.5,0.00,18.7,17.7,"23:52:00",1
